BAW985 ZSPD-RKSS

Flight info

Callsign BAW985
Flight time 1h 14m
Altitude 35000
Route LAM84D LAMEN A593 SADLI Y590 ELGEP Y722 OLMEN OLMEN2U
Aircraft A320/H-SDE1FGHILORVWXY/L

Departure

Time 2026-05-05 14:10
Airport Shanghai Pudong International Airport (ZSPD)

Arrival

Time 2026-05-05 15:25
Airport Gimpo International Airport (RKSS)
Time Latitude Longitude Altitude Speed Heading
2026-05-05 13:35 31.15727 121.80412 13 ft 0 kts 73°
2026-05-05 13:59 31.15724 121.80401 12 ft 4 kts 70°
2026-05-05 14:00 31.15695 121.80350 11 ft 4 kts 31°
2026-05-05 14:00 31.15671 121.80340 13 ft 4 kts 357°
2026-05-05 14:00 31.15659 121.80342 11 ft 0 kts 342°
2026-05-05 14:03 31.15664 121.80340 13 ft 3 kts 345°
2026-05-05 14:03 31.15698 121.80328 11 ft 8 kts 342°
2026-05-05 14:04 31.15762 121.80304 11 ft 12 kts 341°
2026-05-05 14:04 31.15856 121.80270 11 ft 16 kts 342°
2026-05-05 14:04 31.15971 121.80226 11 ft 4 kts 341°
2026-05-05 14:04 31.15987 121.80222 11 ft 5 kts 353°
2026-05-05 14:05 31.16030 121.80242 11 ft 9 kts 47°
2026-05-05 14:05 31.16059 121.80326 11 ft 13 kts 72°
2026-05-05 14:05 31.16093 121.80446 11 ft 18 kts 72°
2026-05-05 14:05 31.16108 121.80547 11 ft 13 kts 93°
2026-05-05 14:06 31.16121 121.80669 12 ft 15 kts 72°
2026-05-05 14:06 31.16087 121.80767 11 ft 16 kts 157°
2026-05-05 14:06 31.16039 121.80788 11 ft 0 kts 158°
2026-05-05 14:07 31.16027 121.80793 11 ft 4 kts 162°
2026-05-05 14:07 31.15984 121.80809 12 ft 9 kts 162°
2026-05-05 14:07 31.15912 121.80836 12 ft 13 kts 162°
2026-05-05 14:08 31.15824 121.80885 11 ft 15 kts 126°
2026-05-05 14:08 31.15840 121.81014 12 ft 15 kts 72°
2026-05-05 14:08 31.15851 121.81055 11 ft 3 kts 72°
2026-05-05 14:08 31.15852 121.81059 11 ft 0 kts 72°
2026-05-05 14:09 31.15861 121.81099 11 ft 9 kts 76°
2026-05-05 14:09 31.15854 121.81176 10 ft 11 kts 124°
2026-05-05 14:09 31.15784 121.81216 11 ft 14 kts 161°
2026-05-05 14:10 31.15589 121.81291 10 ft 46 kts 162°
2026-05-05 14:10 31.15058 121.81494 11 ft 118 kts 162°
2026-05-05 14:10 31.14098 121.81861 36 ft 169 kts 162°
2026-05-05 14:10 31.12942 121.82297 667 ft 180 kts 163°
2026-05-05 14:11 31.11766 121.82757 1316 ft 181 kts 163°
2026-05-05 14:11 31.10537 121.83293 1724 ft 197 kts 162°
2026-05-05 14:11 31.09205 121.84003 1950 ft 229 kts 148°
2026-05-05 14:11 31.07905 121.85210 2454 ft 250 kts 145°
2026-05-05 14:12 31.06497 121.86457 3235 ft 258 kts 144°
2026-05-05 14:12 31.05027 121.87694 4114 ft 263 kts 146°
2026-05-05 14:12 31.03505 121.88913 4747 ft 265 kts 146°
2026-05-05 14:12 31.01968 121.90123 5086 ft 271 kts 146°
2026-05-05 14:13 31.00483 121.91455 5001 ft 267 kts 140°
2026-05-05 14:13 30.99081 121.92893 5319 ft 270 kts 139°
2026-05-05 14:13 30.97687 121.94373 6225 ft 272 kts 138°
2026-05-05 14:13 30.96281 121.95880 7030 ft 277 kts 137°
2026-05-05 14:14 30.94877 121.97430 7847 ft 281 kts 133°
2026-05-05 14:14 30.93857 121.99351 8514 ft 289 kts 110°
2026-05-05 14:14 30.93589 122.01679 9248 ft 295 kts 85°
2026-05-05 14:14 30.94066 122.04027 9932 ft 303 kts 72°
2026-05-05 14:15 30.94709 122.06375 10641 ft 306 kts 72°
2026-05-05 14:15 30.95348 122.08764 11215 ft 316 kts 72°
2026-05-05 14:15 30.96036 122.11257 11578 ft 331 kts 71°
2026-05-05 14:15 30.96789 122.13849 11979 ft 344 kts 71°
2026-05-05 14:16 30.97604 122.16519 12401 ft 355 kts 70°
2026-05-05 14:16 30.98438 122.19266 12859 ft 365 kts 70°
2026-05-05 14:16 30.99251 122.22064 13325 ft 373 kts 71°
2026-05-05 14:16 30.99910 122.25019 13728 ft 384 kts 82°
2026-05-05 14:17 31.00029 122.28175 14015 ft 394 kts 92°
2026-05-05 14:17 30.99921 122.31370 14653 ft 394 kts 92°
2026-05-05 14:17 30.99848 122.34547 15391 ft 390 kts 90°
2026-05-05 14:17 30.99916 122.37700 15956 ft 393 kts 81°
2026-05-05 14:18 31.00724 122.40763 16219 ft 400 kts 61°
2026-05-05 14:18 31.02335 122.43394 16702 ft 400 kts 43°
2026-05-05 14:18 31.04504 122.45380 16949 ft 408 kts 32°
2026-05-05 14:18 31.06882 122.47257 17223 ft 417 kts 32°
2026-05-05 14:19 31.09285 122.49181 17723 ft 419 kts 34°
2026-05-05 14:19 31.11648 122.51101 18566 ft 413 kts 29°
2026-05-05 14:19 31.14154 122.52818 18742 ft 423 kts 27°
2026-05-05 14:19 31.16723 122.54482 19280 ft 422 kts 26°
2026-05-05 14:20 31.19295 122.56166 19753 ft 425 kts 28°
2026-05-05 14:20 31.21836 122.57956 20215 ft 428 kts 29°
2026-05-05 14:20 31.24326 122.59802 20668 ft 431 kts 30°
2026-05-05 14:20 31.26848 122.61722 21091 ft 434 kts 31°
2026-05-05 14:21 31.29384 122.63664 21478 ft 437 kts 31°
2026-05-05 14:21 31.31939 122.65609 21880 ft 440 kts 31°
2026-05-05 14:21 31.34518 122.67553 22269 ft 442 kts 30°
2026-05-05 14:21 31.37116 122.69494 22653 ft 445 kts 30°
2026-05-05 14:22 31.39736 122.71436 23029 ft 447 kts 30°
2026-05-05 14:22 31.42375 122.73381 23401 ft 449 kts 30°
2026-05-05 14:22 31.45025 122.75337 23772 ft 451 kts 30°
2026-05-05 14:22 31.47649 122.77285 24073 ft 454 kts 30°
2026-05-05 14:23 31.50323 122.79275 24364 ft 456 kts 30°
2026-05-05 14:23 31.53007 122.81275 24649 ft 459 kts 30°
2026-05-05 14:23 31.55713 122.83294 24943 ft 462 kts 30°
2026-05-05 14:23 31.58431 122.85324 25236 ft 465 kts 30°
2026-05-05 14:24 31.61165 122.87366 25526 ft 467 kts 30°
2026-05-05 14:24 31.63918 122.89420 25808 ft 470 kts 30°
2026-05-05 14:24 31.66679 122.91486 26171 ft 471 kts 30°
2026-05-05 14:24 31.69441 122.93558 26586 ft 471 kts 30°
2026-05-05 14:25 31.72166 122.95604 26994 ft 471 kts 30°
2026-05-05 14:25 31.74926 122.97671 27381 ft 471 kts 30°
2026-05-05 14:25 31.77695 122.99744 27779 ft 472 kts 30°
2026-05-05 14:25 31.80462 123.01820 28182 ft 472 kts 30°
2026-05-05 14:26 31.83232 123.03901 28584 ft 472 kts 30°
2026-05-05 14:26 31.85999 123.05985 29004 ft 473 kts 30°
2026-05-05 14:26 31.88769 123.08074 29413 ft 473 kts 30°
2026-05-05 14:26 31.91545 123.10168 29827 ft 473 kts 30°
2026-05-05 14:27 31.94316 123.12254 30236 ft 474 kts 30°
2026-05-05 14:27 31.97098 123.14346 30579 ft 474 kts 30°
2026-05-05 14:27 31.99841 123.16411 30886 ft 476 kts 30°
2026-05-05 14:27 32.02640 123.18521 31119 ft 479 kts 30°
2026-05-05 14:28 32.05445 123.20642 31465 ft 479 kts 30°
2026-05-05 14:28 32.08248 123.22765 31809 ft 479 kts 30°
2026-05-05 14:28 32.11056 123.24894 32149 ft 480 kts 30°
2026-05-05 14:28 32.13871 123.27022 32492 ft 481 kts 29°
2026-05-05 14:29 32.16686 123.29152 32841 ft 481 kts 29°
2026-05-05 14:29 32.19466 123.31263 33220 ft 481 kts 30°
2026-05-05 14:29 32.22267 123.33392 33735 ft 477 kts 30°
2026-05-05 14:29 32.25050 123.35513 34197 ft 475 kts 29°
2026-05-05 14:30 32.27827 123.37628 34509 ft 475 kts 29°
2026-05-05 14:30 32.30603 123.39739 34788 ft 475 kts 29°
2026-05-05 14:30 32.33382 123.41851 35029 ft 476 kts 29°
2026-05-05 14:30 32.36171 123.43971 35101 ft 479 kts 29°
2026-05-05 14:31 32.41846 123.48287 35109 ft 489 kts 29°
2026-05-05 14:31 32.47537 123.52642 35108 ft 491 kts 29°
2026-05-05 14:32 32.53279 123.57034 35106 ft 491 kts 29°
2026-05-05 14:32 32.59009 123.61432 35105 ft 488 kts 30°
2026-05-05 14:33 32.64701 123.65800 35106 ft 487 kts 29°
2026-05-05 14:33 32.70355 123.70130 35099 ft 487 kts 29°
2026-05-05 14:34 32.76061 123.74516 35104 ft 489 kts 30°
2026-05-05 14:34 32.81771 123.78928 35110 ft 490 kts 30°
2026-05-05 14:35 32.87481 123.83346 35117 ft 490 kts 30°
2026-05-05 14:35 32.93153 123.87740 35138 ft 490 kts 30°
2026-05-05 14:36 32.98850 123.92157 35144 ft 488 kts 30°
2026-05-05 14:36 33.04534 123.96563 35128 ft 487 kts 30°
2026-05-05 14:37 33.10221 124.00967 35113 ft 488 kts 30°
2026-05-05 14:37 33.15872 124.05362 35133 ft 488 kts 30°
2026-05-05 14:38 33.21553 124.09782 35136 ft 487 kts 30°
2026-05-05 14:38 33.27227 124.14216 35130 ft 487 kts 30°
2026-05-05 14:39 33.32888 124.18656 35141 ft 486 kts 30°
2026-05-05 14:39 33.38510 124.23047 35126 ft 486 kts 30°
2026-05-05 14:40 33.44167 124.27481 35117 ft 487 kts 30°
2026-05-05 14:40 33.49832 124.31935 35134 ft 487 kts 30°
2026-05-05 14:41 33.55493 124.36389 35138 ft 486 kts 30°
2026-05-05 14:41 33.61151 124.40833 35136 ft 486 kts 30°
2026-05-05 14:42 33.66758 124.45256 35125 ft 482 kts 30°
2026-05-05 14:42 33.69523 124.47441 35120 ft 471 kts 30°
2026-05-05 14:42 33.72258 124.49602 35116 ft 471 kts 30°
2026-05-05 14:43 33.77733 124.53929 35118 ft 471 kts 30°
2026-05-05 14:43 33.83214 124.58260 35125 ft 470 kts 30°
2026-05-05 14:44 33.88698 124.62600 35131 ft 482 kts 30°
2026-05-05 14:44 33.94320 124.67076 35136 ft 486 kts 30°
2026-05-05 14:45 33.99965 124.71578 35151 ft 485 kts 31°
2026-05-05 14:45 34.05581 124.76061 35145 ft 486 kts 30°
2026-05-05 14:46 34.11193 124.80550 35145 ft 488 kts 30°
2026-05-05 14:46 34.16842 124.85078 35162 ft 487 kts 31°
2026-05-05 14:47 34.22466 124.89596 35155 ft 485 kts 31°
2026-05-05 14:47 34.28079 124.94100 35164 ft 484 kts 31°
2026-05-05 14:48 34.33654 124.98576 35176 ft 483 kts 31°
2026-05-05 14:48 34.39256 125.03091 35175 ft 484 kts 31°
2026-05-05 14:49 34.44868 125.07617 35172 ft 485 kts 31°
2026-05-05 14:49 34.50477 125.12155 35182 ft 484 kts 31°
2026-05-05 14:50 34.56032 125.16663 35185 ft 483 kts 31°
2026-05-05 14:50 34.61618 125.21192 35185 ft 483 kts 31°
2026-05-05 14:51 34.67203 125.25735 35189 ft 483 kts 31°
2026-05-05 14:51 34.72786 125.30275 35190 ft 483 kts 31°
2026-05-05 14:52 34.78326 125.34791 35193 ft 483 kts 31°
2026-05-05 14:52 34.83899 125.39344 35205 ft 482 kts 31°
2026-05-05 14:53 34.89444 125.43884 35200 ft 480 kts 31°
2026-05-05 14:53 34.94982 125.48423 35203 ft 480 kts 31°
2026-05-05 14:54 35.00530 125.52978 35214 ft 481 kts 31°
2026-05-05 14:54 35.06037 125.57499 35213 ft 480 kts 31°
2026-05-05 14:55 35.11573 125.62059 35216 ft 480 kts 31°
2026-05-05 14:55 35.17100 125.66628 35226 ft 479 kts 31°
2026-05-05 14:56 35.22604 125.71171 35227 ft 476 kts 31°
2026-05-05 14:56 35.28058 125.75676 35226 ft 476 kts 31°
2026-05-05 14:57 35.33582 125.80257 35225 ft 481 kts 31°
2026-05-05 14:57 35.39124 125.84859 35221 ft 481 kts 31°
2026-05-05 14:58 35.44664 125.89470 35224 ft 482 kts 31°
2026-05-05 14:58 35.50165 125.94057 35237 ft 479 kts 31°
2026-05-05 14:59 35.55658 125.98646 35237 ft 477 kts 32°
2026-05-05 14:59 35.61140 126.03234 35236 ft 477 kts 31°
2026-05-05 15:00 35.65696 126.07042 35239 ft 475 kts 32°
2026-05-05 15:00 35.72026 126.12343 35237 ft 473 kts 32°
2026-05-05 15:01 35.77457 126.16906 35237 ft 473 kts 32°
2026-05-05 15:01 35.82873 126.21468 35247 ft 469 kts 32°
2026-05-05 15:02 35.88254 126.26013 35249 ft 470 kts 32°
2026-05-05 15:02 35.93673 126.30582 35249 ft 473 kts 32°
2026-05-05 15:03 35.99057 126.35131 35257 ft 471 kts 32°
2026-05-05 15:03 36.04453 126.39700 35258 ft 470 kts 32°
2026-05-05 15:04 36.09845 126.44277 35258 ft 470 kts 32°
2026-05-05 15:04 36.15208 126.48849 35265 ft 467 kts 32°
2026-05-05 15:05 36.23227 126.55684 35264 ft 471 kts 32°
2026-05-05 15:06 36.28609 126.60280 35272 ft 468 kts 32°
2026-05-05 15:06 36.33958 126.64852 35267 ft 466 kts 32°
2026-05-05 15:07 36.39253 126.69385 35258 ft 463 kts 32°
2026-05-05 15:07 36.44450 126.73850 35258 ft 449 kts 32°
2026-05-05 15:08 36.49586 126.78268 35239 ft 451 kts 32°
2026-05-05 15:08 36.54755 126.82717 35238 ft 452 kts 32°
2026-05-05 15:09 36.59905 126.87159 35244 ft 448 kts 32°
2026-05-05 15:09 36.64986 126.91545 35241 ft 447 kts 32°
2026-05-05 15:10 36.70092 126.95961 35245 ft 447 kts 32°
2026-05-05 15:10 36.75048 127.00618 35243 ft 449 kts 40°
2026-05-05 15:11 36.79622 127.05875 35241 ft 451 kts 40°
2026-05-05 15:11 36.84245 127.11187 35244 ft 452 kts 40°
2026-05-05 15:12 36.88871 127.16499 35237 ft 452 kts 40°
2026-05-05 15:12 36.91171 127.19144 35043 ft 446 kts 40°
2026-05-05 15:12 36.93434 127.21756 34375 ft 439 kts 41°
2026-05-05 15:12 36.95656 127.24329 33675 ft 432 kts 41°
2026-05-05 15:13 36.97852 127.26869 32844 ft 427 kts 41°
2026-05-05 15:13 36.99986 127.29340 32156 ft 419 kts 41°
2026-05-05 15:13 37.02122 127.31816 30813 ft 424 kts 41°
2026-05-05 15:13 37.04333 127.34379 28779 ft 442 kts 41°
2026-05-05 15:14 37.06619 127.37033 26673 ft 455 kts 42°
2026-05-05 15:14 37.08961 127.39760 25112 ft 459 kts 42°
2026-05-05 15:14 37.11299 127.42353 24602 ft 435 kts 34°
2026-05-05 15:14 37.13891 127.44041 23979 ft 414 kts 18°
2026-05-05 15:15 37.16741 127.44595 22428 ft 418 kts
2026-05-05 15:15 37.19671 127.44632 20686 ft 424 kts 356°
2026-05-05 15:15 37.22525 127.43726 19094 ft 427 kts 334°
2026-05-05 15:15 37.24865 127.41555 17628 ft 425 kts 311°
2026-05-05 15:16 37.26435 127.38452 16183 ft 421 kts 293°
2026-05-05 15:16 37.27264 127.34964 14876 ft 415 kts 278°
2026-05-05 15:16 37.27334 127.31419 14245 ft 395 kts 264°
2026-05-05 15:16 37.26934 127.28136 13942 ft 367 kts 260°
2026-05-05 15:17 37.26486 127.24971 12408 ft 372 kts 259°
2026-05-05 15:17 37.26015 127.21743 10789 ft 380 kts 260°
2026-05-05 15:17 37.25993 127.18451 9504 ft 376 kts 280°
2026-05-05 15:17 37.26927 127.15492 8456 ft 367 kts 303°
2026-05-05 15:18 37.28571 127.13172 7510 ft 353 kts 315°
2026-05-05 15:18 37.30407 127.11091 6058 ft 357 kts 315°
2026-05-05 15:18 37.32188 127.08955 4901 ft 350 kts 313°
2026-05-05 15:18 37.33859 127.06846 4365 ft 328 kts 313°
2026-05-05 15:19 37.35409 127.04905 4165 ft 301 kts 313°
2026-05-05 15:19 37.36838 127.03130 4029 ft 277 kts 313°
2026-05-05 15:19 37.38145 127.01505 4005 ft 252 kts 312°
2026-05-05 15:19 37.39332 127.00026 4004 ft 229 kts 311°
2026-05-05 15:20 37.40404 126.98688 3936 ft 214 kts 311°
2026-05-05 15:20 37.41434 126.97403 3723 ft 203 kts 311°
2026-05-05 15:20 37.42414 126.96180 3478 ft 193 kts 310°
2026-05-05 15:20 37.43351 126.95009 3238 ft 187 kts 310°
2026-05-05 15:21 37.44245 126.93893 2999 ft 172 kts 310°
2026-05-05 15:21 37.45070 126.92862 2786 ft 171 kts 309°
2026-05-05 15:21 37.45922 126.91793 2532 ft 173 kts 309°
2026-05-05 15:21 37.46776 126.90728 2295 ft 172 kts 308°
2026-05-05 15:22 37.47624 126.89667 2069 ft 172 kts 308°
2026-05-05 15:22 37.48462 126.88619 1834 ft 172 kts 308°
2026-05-05 15:22 37.49307 126.87562 1597 ft 172 kts 309°
2026-05-05 15:22 37.50155 126.86500 1349 ft 172 kts 313°
2026-05-05 15:23 37.51003 126.85438 1119 ft 172 kts 311°
2026-05-05 15:23 37.51854 126.84373 900 ft 171 kts 313°
2026-05-05 15:23 37.52690 126.83325 663 ft 163 kts 314°
2026-05-05 15:23 37.53457 126.82363 452 ft 151 kts 315°
2026-05-05 15:24 37.54181 126.81442 286 ft 146 kts 314°
2026-05-05 15:24 37.54902 126.80547 108 ft 145 kts 316°
2026-05-05 15:24 37.55545 126.79751 54 ft 91 kts 314°
2026-05-05 15:24 37.55807 126.79413 51 ft 54 kts 314°
2026-05-05 15:25 37.56039 126.79129 49 ft 46 kts 319°
2026-05-05 15:25 37.56239 126.78993 51 ft 22 kts 343°
2026-05-05 15:25 37.56317 126.79029 51 ft 13 kts 73°
2026-05-05 15:25 37.56309 126.79078 48 ft 7 kts 116°
2026-05-05 15:26 37.56303 126.79154 52 ft 10 kts 79°
2026-05-05 15:26 37.56297 126.79218 52 ft 9 kts 118°
2026-05-05 15:26 37.56269 126.79261 52 ft 3 kts 130°
2026-05-05 15:26 37.56251 126.79331 52 ft 12 kts 82°
2026-05-05 15:27 37.56303 126.79417 50 ft 15 kts 45°
2026-05-05 15:27 37.56380 126.79514 50 ft 12 kts 43°
2026-05-05 15:27 37.56461 126.79601 52 ft 18 kts 18°
2026-05-05 15:27 37.56552 126.79564 52 ft 14 kts 325°
2026-05-05 15:28 37.56639 126.79579 50 ft 11 kts 49°
2026-05-05 15:28 37.56614 126.79672 52 ft 18 kts 133°
2026-05-05 15:28 37.56581 126.79706 52 ft 0 kts 147°